Flag for Guatemala Weather past 2 weeks in Escuintla, Guatemala

Now
68 °F

Thunderstorms. Broken clouds.


Feels Like: 68 °F
Forecast: 68 / 93 °F
Wind: 5 mph from South

Location: Guatemala Aeropuertola Aurora

Current Time: Sep 2, 2014 at 6:04:31 PM

Latest Report: Sep 2, 2014 at 5:00 PM


Visibility: 3 mi

Pressure: 30.18 "Hg

Humidity: 88%

Dew point: 64 °F

Location of EscuintlaLocation

Historic Weather in Escuintla — Graph

°F

Escuintla temperature yesterday

Maximum temperature yesterday: 75 °F (at 11:00 AM)
Minimum temperature yesterday: 61 °F (at 1:00 AM)
Average temperature yesterday: 68 °F

Past Weeks' High & Low Weather Summary

 TemperatureHumidityPressure
High82 °F (Aug 26, 3:00 PM)100% (Aug 19, 6:00 AM)30.36 "Hg (Aug 19, 6:00 AM)
Low59 °F (Aug 24, 5:00 AM)40% (Aug 26, 3:00 PM)30.12 "Hg (Aug 25, 4:00 PM)
Average68 °F79%30.25 "Hg
* Reported Aug 18 5:00 PM — Sep 2 5:00 PM, Escuintla, Weather by CustomWeather, © 2014

Note: Actual official high and low records may vary slightly from our data, if they occured in-between our weather recording intervals... More about our weather records

Advertising

Escuintla weather history for previous 24 hours

 ConditionsComfort  
Time TempWeatherWind HumidityBarometerVisibility
5:00 PM
Sep 2
68 °FThunderstorms. Broken clouds.5 mph88%30.18 "Hg3 mi
4:00 PM68 °FThunderstorms. Scattered clouds.5 mph83%30.15 "HgN/A
3:00 PM72 °FScattered clouds.7 mph73%30.18 "HgN/A
2:00 PM77 °FThunderstorms. Partly sunny.12 mph57%30.21 "Hg5 mi
1:25 PMN/AThunderstorms.7 mphN/AN/AN/A
1:00 PM81 °FScattered clouds.9 mph54%30.24 "HgN/A
12:00 PM79 °FBroken clouds.9 mph58%30.27 "HgN/A
11:00 AM77 °FBroken clouds.7 mph57%30.30 "HgN/A
10:00 AM73 °FBroken clouds.7 mph69%30.30 "HgN/A
9:00 AM68 °FBroken clouds.7 mph78%30.30 "HgN/A
8:00 AM66 °FBroken clouds.9 mph83%30.30 "HgN/A
7:00 AM63 °FFog.7 mph94%30.27 "Hg2 mi
6:00 AM63 °FScattered clouds.5 mph94%30.27 "Hg4 mi
5:00 AM63 °FPassing clouds.7 mph94%30.27 "Hg4 mi
4:00 AM63 °FPassing clouds.No wind94%30.24 "Hg4 mi
3:00 AM64 °FFog.5 mph94%30.24 "Hg3 mi
2:00 AM64 °FFog.5 mph94%30.27 "Hg2 mi
1:00 AM64 °FPassing clouds.No wind94%30.27 "Hg4 mi
12:00 AM66 °FPassing clouds.5 mph88%30.30 "Hg5 mi
11:00 PM
Sep 1
66 °FPassing clouds.7 mph88%30.33 "Hg4 mi
10:00 PM66 °FPartly cloudy.7 mph94%30.33 "Hg4 mi
9:00 PM68 °FPartly cloudy.7 mph88%30.30 "Hg4 mi
8:00 PM68 °FPartly cloudy.No wind83%30.30 "Hg5 mi
7:00 PM68 °FPassing clouds.No wind78%30.27 "HgN/A
6:00 PM72 °FThunderstorms. Scattered clouds.12 mph78%30.24 "HgN/A
Weather by CustomWeather, © 2014

See weather overviewHow to use our weather pages